DW0156 Weather Reports


time (UTC)temp
C
wind
direction
speed
KPH
gust
KPH
rain 1hr
cm
rain 24hr
cm
rain mn
cm
humidity
%
barometer
mb
20260904200929 15 263 12.9 30.6 0.00 0.18 0.00 74 1010.0
20260904200431 15 263 14.5 32.2 0.00 0.18 0.00 75 1010.0
20260904195921 15 263 12.9 32.2 0.00 0.18 0.00 76 1010.0
20260904195418 15 263 11.3 32.2 0.00 0.18 0.00 77 1009.7
20260904194912 15 263 9.7 32.2 0.00 0.18 0.00 78 1009.7
20260904194408 15 263 9.7 24.1 0.00 0.15 0.00 79 1009.7
20260904193917 15 263 8.0 22.5 0.00 0.15 0.00 79 1009.5
20260904193402 15 263 6.4 22.5 0.00 0.15 0.00 80 1009.5
20260904192853 15 263 6.4 25.7 0.00 0.15 0.00 80 1009.2
20260904192345 15 263 6.4 25.7 0.00 0.15 0.00 80 1009.2
20260904191845 15 263 6.4 25.7 0.00 0.15 0.00 80 1009.2
20260904191330 15 263 4.8 25.7 0.00 0.15 0.00 80 1009.1
20260904190820 15 263 4.8 20.9 0.00 0.15 0.00 80 1009.1
20260904190307 15 263 4.8 17.7 0.00 0.15 0.00 79 1009.1
20260904185812 15 263 4.8 16.1 0.00 0.15 0.00 79 1008.9
20260904185256 15 263 3.2 20.9 0.00 0.15 0.00 79 1008.9
20260904184739 15 263 3.2 20.9 0.00 0.15 0.00 78 1008.9
20260904184235 15 263 4.8 20.9 0.00 0.15 0.00 78 1008.6
20260904183738 15 263 4.8 20.9 0.00 0.15 0.00 79 1008.6
20260904183222 15 263 3.2 12.9 0.00 0.15 0.00 80 1008.6
20260904182732 15 263 1.6 12.9 0.00 0.15 0.00 81 1008.8
20260904182221 15 263 1.6 12.9 0.00 0.15 0.00 81 1008.8
20260904181713 15 263 1.6 11.3 0.00 0.15 0.00 81 1008.8
20260904181214 15 263 1.6 11.3 0.00 0.15 0.00 81 1008.5
20260904180714 15 263 1.6 14.5 0.00 0.15 0.00 81 1008.5
20260904180216 15 263 3.2 14.5 0.00 0.15 0.00 81 1008.5
20260904175724 15 263 3.2 17.7 0.00 0.15 0.00 81 1008.4
20260904175211 15 263 1.6 17.7 0.00 0.15 0.00 81 1008.4
20260904174710 15 263 1.6 17.7 0.00 0.15 0.00 81 1008.4
20260904174207 16 263 3.2 17.7 0.00 0.15 0.00 81 1008.4
20260904173042 16 263 3.2 12.9 0.00 0.15 0.00 81 1008.4
20260904171932 16 263 3.2 8.0 0.00 0.15 0.00 81 1008.5
20260904171424 16 263 1.6 8.0 0.00 0.15 0.00 81 1008.5
20260904170932 16 263 1.6 9.7 0.00 0.15 0.00 80 1008.5
20260904170427 16 263 1.6 9.7 0.00 0.15 0.00 80 1008.5
20260904165916 16 263 1.6 9.7 0.00 0.15 0.00 80 1008.5
20260904165359 16 263 1.6 9.7 0.00 0.15 0.00 80 1008.6
20260904164248 16 263 3.2 8.0 0.00 0.15 0.00 80 1008.8
20260904163752 16 263 3.2 8.0 0.00 0.15 0.00 80 1008.8
20260904163239 16 263 3.2 8.0 0.00 0.15 0.00 80 1008.8
20260904162724 16 263 1.6 8.0 0.00 0.15 0.00 80 1008.8
20260904162232 16 263 1.6 6.4 0.00 0.15 0.00 80 1008.8
20260904161137 16 263 1.6 6.4 0.00 0.15 0.00 80 1008.5
20260904160020 16 263 0.0 0.0 0.00 0.15 0.00 80 1008.5
20260904155502 16 263 0.0 0.0 0.00 0.15 0.00 80 1008.4
20260904154953 16 263 0.0 4.8 0.00 0.15 0.00 80 1008.4
20260904154448 16 263 0.0 3.2 0.00 0.15 0.00 80 1008.4
20260904153947 16 263 0.0 0.0 0.00 0.15 0.00 80 1008.5
20260904153456 16 263 0.0 6.4 0.00 0.15 0.00 80 1008.5
20260904152949 16 263 1.6 6.4 0.00 0.15 0.00 80 1008.5
20260904152437 16 263 1.6 6.4 0.00 0.15 0.00 80 1008.6
20260904151937 16 263 1.6 6.4 0.00 0.15 0.00 80 1008.6
20260904151431 16 263 0.0 6.4 0.00 0.15 0.00 79 1008.6
20260904150928 16 263 0.0 1.6 0.00 0.15 0.00 79 1009.0
20260904150434 16 263 0.0 0.0 0.00 0.15 0.00 79 1009.0
20260904145918 16 263 0.0 1.6 0.00 0.15 0.00 78 1009.0
20260904145423 16 263 0.0 0.0 0.00 0.15 0.00 78 1008.6
20260904144257 16 263 0.0 0.0 0.00 0.15 0.00 78 1008.5
20260904143755 16 263 0.0 0.0 0.00 0.15 0.00 77 1008.5
20260904143241 16 263 0.0 0.0 0.00 0.15 0.00 77 1008.5
20260904142741 16 263 1.6 4.8 0.00 0.15 0.15 77 1009.0
20260904141640 16 263 1.6 9.7 0.00 0.15 0.15 76 1009.0
20260904141128 17 263 3.2 9.7 0.00 0.15 0.15 76 1008.5
20260904140001 17 263 3.2 9.7 0.00 0.13 0.13 74 1008.5
20260904135448 17 263 3.2 12.9 0.00 0.13 0.13 74 1008.6
20260904134932 17 263 1.6 12.9 0.00 0.13 0.13 74 1008.6
20260904134426 17 263 3.2 16.1 0.00 0.13 0.13 73 1008.6
20260904133915 17 263 3.2 16.1 0.00 0.13 0.13 73 1009.0
20260904133417 17 263 4.8 16.1 0.00 0.13 0.13 72 1009.0
20260904132923 17 263 4.8 16.1 0.00 0.13 0.13 72 1009.0
20260904132404 17 263 4.8 14.5 0.00 0.13 0.13 71 1008.5
20260904131905 17 263 4.8 16.1 0.00 0.13 0.13 71 1008.5
20260904130753 17 263 4.8 16.1 0.00 0.13 0.13 72 1008.3
20260904130238 17 263 4.8 16.1 0.00 0.13 0.13 72 1008.3
20260904125729 17 263 4.8 16.1 0.00 0.13 0.13 72 1008.2
20260904125227 17 263 4.8 17.7 0.00 0.13 0.13 71 1008.2
20260904124709 17 263 6.4 17.7 0.00 0.13 0.13 71 1008.2
20260904123546 17 263 4.8 19.3 0.00 0.13 0.13 70 1008.5
20260904123055 18 263 6.4 19.3 0.00 0.13 0.13 71 1008.5
20260904122540 17 263 6.4 19.3 0.00 0.13 0.13 71 1008.8
20260904122038 17 263 4.8 17.7 0.00 0.13 0.13 71 1008.8
20260904120936 17 263 4.8 16.1 0.00 0.13 0.13 71 1008.6
20260904115810 18 263 6.4 19.3 0.00 0.13 0.13 71 1009.0
20260904115251 18 263 6.4 19.3 0.00 0.13 0.13 71 1009.0
20260904114734 18 263 6.4 19.3 0.00 0.13 0.13 71 1009.0
20260904114230 18 263 6.4 17.7 0.00 0.13 0.13 71 1009.1
20260904113732 18 263 6.4 17.7 0.00 0.13 0.13 70 1009.1
20260904113217 18 263 6.4 19.3 0.00 0.13 0.13 70 1009.1
20260904112050 18 263 4.8 19.3 0.00 0.13 0.13 70 1009.0
20260904110906 18 263 6.4 20.9 0.00 0.13 0.13 69 1009.0
20260904110358 18 263 6.4 20.9 0.00 0.13 0.13 69 1009.0
20260904105843 18 263 6.4 24.1 0.00 0.13 0.13 69 1009.1
20260904105344 18 263 4.8 24.1 0.00 0.13 0.13 69 1009.1
20260904104832 18 263 6.4 24.1 0.00 0.13 0.13 70 1009.1
20260904104323 18 263 6.4 24.1 0.00 0.13 0.13 70 1009.1
20260904103152 18 263 4.8 16.1 0.00 0.13 0.13 71 1009.1
20260904102638 18 263 4.8 16.1 0.00 0.13 0.13 72 1009.1
20260904102121 18 263 6.4 22.5 0.00 0.13 0.13 72 1009.1
20260904101626 18 263 4.8 22.5 0.00 0.13 0.13 73 1009.1
20260904100442 18 263 4.8 22.5 0.00 0.13 0.13 75 1009.2
20260904095947 18 263 4.8 17.7 0.00 0.13 0.13 75 1009.2
20260904095433 18 263 4.8 17.7 0.00 0.13 0.13 75 1009.0
20260904094928 18 263 4.8 17.7 0.00 0.13 0.13 75 1009.0
20260904094419 18 263 4.8 17.7 0.00 0.13 0.13 75 1009.0
20260904093858 18 263 3.2 14.5 0.00 0.13 0.13 75 1008.6
20260904093338 18 263 3.2 16.1 0.00 0.13 0.13 75 1008.6
20260904092830 18 263 3.2 16.1 0.00 0.13 0.13 75 1008.5
20260904092321 18 263 4.8 16.1 0.00 0.13 0.13 75 1008.5
20260904091816 18 263 6.4 16.1 0.00 0.13 0.13 75 1008.5
20260904091321 18 263 6.4 16.1 0.00 0.13 0.13 75 1008.6
20260904090822 18 263 4.8 16.1 0.00 0.13 0.13 76 1008.6
20260904090306 18 263 3.2 16.1 0.00 0.13 0.13 75 1008.6
20260904085811 18 263 3.2 16.1 0.00 0.13 0.13 76 1008.6
20260904084656 18 263 4.8 16.1 0.00 0.13 0.13 76 1008.6
20260904084159 18 263 4.8 9.7 0.00 0.13 0.13 76 1008.5
20260904083646 19 263 4.8 12.9 0.00 0.13 0.13 75 1008.5
20260904083131 19 263 4.8 12.9 0.00 0.13 0.13 75 1008.5
20260904082618 19 263 4.8 12.9 0.00 0.13 0.13 75 1008.6
20260904082120 19 263 4.8 12.9 0.00 0.13 0.13 75 1008.6
20260904081608 19 263 4.8 9.7 0.00 0.13 0.13 75 1008.6
20260904081112 19 263 3.2 16.1 0.00 0.13 0.13 74 1008.7
20260904080557 19 263 3.2 16.1 0.00 0.13 0.13 74 1008.7
20260904080045 19 263 3.2 16.1 0.00 0.13 0.13 74 1008.7
20260904074920 19 263 4.8 14.5 0.00 0.13 0.13 73 1008.8
20260904074423 19 263 4.8 16.1 0.00 0.13 0.13 73 1008.8
20260904073924 19 263 4.8 16.1 0.00 0.13 0.13 73 1009.0
20260904073419 20 263 4.8 16.1 0.00 0.13 0.13 73 1009.0
20260904072908 20 263 3.2 16.1 0.00 0.13 0.13 73 1009.1
20260904072400 20 263 3.2 12.9 0.00 0.13 0.13 73 1009.1
20260904071905 20 263 1.6 12.9 0.00 0.13 0.13 73 1009.1
20260904071346 20 263 3.2 12.9 0.00 0.13 0.13 73 1009.1
20260904070827 20 263 4.8 12.9 0.00 0.13 0.13 73 1009.1
20260904070315 20 263 4.8 12.9 0.00 0.13 0.13 73 1009.1
20260904065757 19 263 3.2 12.9 0.00 0.13 0.13 72 1009.1
20260904064619 20 263 3.2 9.7 0.00 0.13 0.13 71 1009.1
20260904064119 20 263 3.2 17.7 0.00 0.13 0.13 70 1009.2
20260904063617 20 263 4.8 17.7 0.00 0.13 0.13 69 1009.2
20260904063100 20 263 6.4 17.7 0.00 0.13 0.13 68 1009.2
20260904061933 20 263 6.4 22.5 0.00 0.13 0.13 68 1009.3
20260904061423 20 263 6.4 22.5 0.00 0.13 0.13 68 1009.3
20260904060914 20 263 6.4 22.5 0.00 0.13 0.13 68 1009.4
20260904060417 20 263 6.4 22.5 0.00 0.13 0.13 68 1009.4
20260904055913 20 263 4.8 16.1 0.00 0.13 0.13 69 1009.4
20260904055408 20 263 4.8 16.1 0.00 0.13 0.13 69 1009.6
20260904054855 20 263 3.2 16.1 0.00 0.13 0.13 69 1009.6
20260904054357 20 263 3.2 16.1 0.00 0.13 0.13 70 1009.9
20260904053840 19 263 4.8 16.1 0.00 0.13 0.13 69 1009.9
20260904053323 19 263 4.8 16.1 0.00 0.13 0.13 70 1009.9
20260904052145 19 263 4.8 19.3 0.00 0.13 0.13 72 1010.0
20260904051649 18 263 8.0 19.3 0.00 0.13 0.13 72 1010.0
20260904050520 18 263 4.8 17.7 0.00 0.13 0.13 73 1010.6
20260904050018 18 263 1.6 14.5 0.00 0.13 0.13 74 1010.6
20260904045502 18 263 1.6 14.5 0.00 0.13 0.13 74 1010.5
20260904044952 18 263 3.2 17.7 0.00 0.13 0.13 73 1010.5
20260904044455 18 263 4.8 17.7 0.00 0.13 0.13 71 1010.5
20260904043952 18 263 4.8 17.7 0.00 0.10 0.10 68 1010.7
20260904042825 18 263 6.4 17.7 0.00 0.10 0.10 69 1010.7
20260904042329 18 263 6.4 17.7 0.00 0.10 0.10 69 1010.7
20260904041817 18 263 6.4 16.1 0.00 0.10 0.10 69 1010.7
20260904041304 18 263 6.4 17.7 0.00 0.10 0.10 69 1011.6
20260904040802 18 263 6.4 17.7 0.00 0.10 0.10 70 1011.6
20260904040258 18 263 6.4 17.7 0.00 0.10 0.10 70 1011.6
20260904035752 18 263 6.4 17.7 0.00 0.10 0.10 71 1011.5
20260904035253 18 263 8.0 20.9 0.00 0.10 0.10 71 1011.5
20260904034739 18 263 8.0 20.9 0.00 0.10 0.10 72 1011.5
20260904034229 18 263 8.0 20.9 0.00 0.10 0.10 75 1011.7
20260904033738 17 263 6.4 20.9 0.00 0.10 0.10 75 1011.7
20260904033231 17 263 4.8 19.3 0.00 0.10 0.10 78 1011.7
20260904032113 16 263 4.8 9.7 0.00 0.10 0.10 81 1012.3
20260904031617 16 263 3.2 11.3 0.00 0.10 0.10 83 1012.3
20260904031058 16 263 3.2 11.3 0.00 0.10 0.10 84 1012.9
20260904030550 15 263 3.2 14.5 0.00 0.08 0.08 84 1012.9
20260904030051 15 263 4.8 14.5 0.00 0.08 0.08 83 1012.9
20260904025543 15 263 4.8 20.9 0.00 0.08 0.08 82 1012.9
20260904025033 15 263 4.8 20.9 0.00 0.08 0.08 83 1012.9
20260904024543 15 263 6.4 20.9 0.00 0.08 0.08 82 1012.9
20260904023417 15 263 6.4 17.7 0.00 0.08 0.08 84 1013.7
20260904022239 15 263 4.8 20.9 0.08 0.08 0.08 84 1013.9
20260904021726 15 263 8.0 20.9 0.10 0.08 0.08 83 1013.9
20260904020606 15 263 3.2 17.7 0.00 0.05 0.08 79 1015.9
20260904020057 15 263 4.8 17.7 0.00 0.05 0.05 78 1015.9
20260904015558 15 263 6.4 17.7 0.00 0.05 0.05 77 1014.9
20260904015102 15 263 6.4 17.7 0.08 0.05 0.05 77 1014.9
20260904014603 15 263 6.4 17.7 0.13 0.05 0.05 75 1014.9
20260904014106 15 263 6.4 17.7 0.36 0.05 0.05 74 1015.3
20260904013547 16 263 6.4 16.1 0.23 0.00 0.03 72 1015.3
20260904013043 16 263 8.0 20.9 0.00 0.00 0.00 70 1015.3
20260904012541 16 263 8.0 20.9 0.00 0.00 0.00 68 1015.4
20260904012043 16 263 9.7 27.4 0.00 0.00 0.00 66 1015.4
20260904010933 17 263 9.7 27.4 0.00 0.00 0.00 64 1015.4
20260904010441 17 263 8.0 27.4 0.00 0.00 0.00 64 1015.4
20260904005926 17 263 8.0 22.5 0.00 0.00 0.00 64 1015.4
20260904005418 17 263 9.7 22.5 0.00 0.00 0.00 64 1015.9
20260904004239 17 263 6.4 22.5 0.00 0.00 0.00 64 1016.0
20260904003749 17 263 8.0 22.5 0.00 0.00 0.00 64 1016.0
20260904003250 17 263 9.7 22.5 0.00 0.00 0.00 64 1016.0
20260904002744 17 263 8.0 22.5 0.00 0.00 0.00 64 1016.1
20260904001611 17 263 6.4 19.3 0.00 0.00 0.00 63 1016.1
20260904001055 17 263 8.0 19.3 0.00 0.00 0.00 63 1015.9
20260904000544 17 263 8.0 19.3 0.00 0.00 0.00 63 1015.9
20260903234747 17 263 4.8 17.7 0.00 0.00 0.00 64 1015.9
20260903234235 17 263 6.4 17.7 0.00 0.00 0.00 64 1015.9
20260903233734 17 263 4.8 17.7 0.00 0.00 0.00 64 1015.9
20260903233221 17 263 4.8 14.5 0.00 0.00 0.00 66 1015.9
20260903232111 16 263 4.8 14.5 0.00 0.00 0.00 67 1016.2
20260903231609 16 263 4.8 14.5 0.00 0.00 0.00 68 1016.2
20260903231053 16 263 4.8 14.5 0.00 0.00 0.00 68 1016.2
20260903225913 15 263 3.2 12.9 0.00 0.00 0.00 69 1016.2
20260903225402 15 263 3.2 12.9 0.00 0.00 0.00 69 1016.4
20260903224909 15 263 3.2 9.7 0.00 0.00 0.00 69 1016.4
20260903224351 15 263 3.2 9.7 0.00 0.00 0.00 69 1015.9
20260903223858 15 263 3.2 14.5 0.00 0.00 0.00 70 1015.9
20260903223341 15 263 3.2 14.5 0.00 0.00 0.00 70 1015.9
20260903222834 15 263 4.8 14.5 0.00 0.00 0.00 70 1016.3
20260903222337 15 263 4.8 14.5 0.00 0.00 0.00 70 1016.3
20260903221150 15 263 3.2 14.5 0.00 0.00 0.00 70 1016.0
20260903220641 15 263 3.2 9.7 0.00 0.00 0.00 71 1016.0
20260903215521 15 263 3.2 9.7 0.00 0.00 0.00 72 1016.0
20260903215027 14 263 3.2 9.7 0.00 0.00 0.00 72 1016.0
20260903214529 14 263 3.2 8.0 0.00 0.00 0.00 72 1016.0
20260903214010 14 263 3.2 9.7 0.00 0.00 0.00 73 1015.6
20260903213455 14 263 3.2 9.7 0.00 0.00 0.00 73 1015.6
20260903212957 14 263 3.2 9.7 0.00 0.00 0.00 73 1015.6
20260903212455 14 263 3.2 9.7 0.00 0.00 0.00 74 1015.8
20260903211946 14 263 3.2 9.7 0.00 0.00 0.00 74 1015.8
20260903211443 13 263 3.2 9.7 0.00 0.00 0.00 75 1015.8
20260903210933 13 263 3.2 12.9 0.00 0.00 0.00 75 1015.7
20260903210439 13 263 3.2 12.9 0.00 0.00 0.00 75 1015.7
20260903205927 13 263 3.2 12.9 0.00 0.00 0.00 76 1015.7
20260903205413 13 263 3.2 12.9 0.00 0.00 0.00 76 1015.9
20260903204912 13 263 4.8 12.9 0.00 0.00 0.00 77 1015.9
20260903203726 13 263 4.8 16.1 0.00 0.00 0.00 78 1016.1
20260903203234 13 263 4.8 16.1 0.00 0.00 0.00 79 1016.1
20260903202103 13 263 4.8 16.1 0.00 0.00 0.00 80 1016.2